Time,TemperatureF,DewpointF,PressureIn,WindDirection,WindDirectionDegrees,WindSpeedMPH,WindSpeedGustMPH,Humidity,HourlyPrecipIn,Conditions,Clouds,dailyrainin,SolarRadiationWatts/m^2,SoftwareType,DateUTC
2013-07-20 00:01:00,78.3,74.1,29.93,South,170,4.0,6.0,87,0.00,,,0.00,0.0,meteohub,2013-07-20 04:01:00,
2013-07-20 00:02:00,78.3,74.1,29.93,South,171,3.0,6.0,87,0.00,,,0.00,0.0,meteohub,2013-07-20 04:02:00,
2013-07-20 00:03:00,78.3,74.1,29.93,South,182,2.0,6.0,87,0.00,,,0.00,0.0,meteohub,2013-07-20 04:03:00,
2013-07-20 00:04:00,78.3,74.1,29.92,South,178,2.0,6.0,87,0.00,,,0.00,0.0,meteohub,2013-07-20 04:04:00,
2013-07-20 00:08:00,78.1,73.9,29.92,SSW,205,4.0,6.0,87,0.00,,,0.00,0.0,meteohub,2013-07-20 04:08:00,
2013-07-20 00:13:00,78.1,73.9,29.92,South,179,3.0,7.0,87,0.00,,,0.00,0.0,meteohub,2013-07-20 04:13:00,
2013-07-20 00:18:00,78.1,74.3,29.93,South,169,1.0,7.0,88,0.00,,,0.00,0.0,meteohub,2013-07-20 04:18:00,
2013-07-20 00:23:00,77.9,74.1,29.93,West,261,1.0,7.0,88,0.00,,,0.00,0.0,meteohub,2013-07-20 04:23:00,
2013-07-20 00:28:00,77.7,73.9,29.93,South,190,0.0,6.0,88,0.00,,,0.00,0.0,meteohub,2013-07-20 04:28:00,
2013-07-20 00:33:00,77.7,73.9,29.93,SW,221,0.0,6.0,88,0.00,,,0.00,0.0,meteohub,2013-07-20 04:33:00,
2013-07-20 00:38:00,77.5,73.8,29.93,WSW,247,1.0,4.0,88,0.00,,,0.00,0.0,meteohub,2013-07-20 04:38:00,
2013-07-20 00:43:00,77.4,73.6,29.93,WSW,246,2.0,4.0,88,0.00,,,0.00,0.0,meteohub,2013-07-20 04:43:00,
2013-07-20 00:48:00,77.4,73.6,29.93,West,261,1.0,4.0,88,0.00,,,0.00,0.0,meteohub,2013-07-20 04:48:00,
2013-07-20 00:53:00,77.2,73.8,29.93,SW,229,4.0,4.0,89,0.00,,,0.00,0.0,meteohub,2013-07-20 04:53:00,
2013-07-20 00:59:00,77.0,73.6,29.93,West,267,2.0,4.0,89,0.00,,,0.00,0.0,meteohub,2013-07-20 04:59:00,
2013-07-20 01:04:00,76.8,73.4,29.94,West,267,1.0,5.0,89,0.00,,,0.00,0.0,meteohub,2013-07-20 05:04:00,
2013-07-20 01:09:00,76.6,73.4,29.94,West,259,1.0,5.0,90,0.00,,,0.00,0.0,meteohub,2013-07-20 05:09:00,
2013-07-20 01:14:00,76.6,73.4,29.94,SSW,205,2.0,4.0,90,0.00,,,0.00,0.0,meteohub,2013-07-20 05:14:00,
2013-07-20 01:19:00,76.3,73.0,29.94,SSW,205,1.0,2.0,90,0.00,,,0.00,0.0,meteohub,2013-07-20 05:19:00,
2013-07-20 01:24:00,76.3,73.0,29.94,SW,223,2.0,2.0,90,0.00,,,0.00,0.0,meteohub,2013-07-20 05:24:00,
2013-07-20 01:29:00,75.9,73.0,29.94,SW,230,0.0,3.0,91,0.00,,,0.00,0.0,meteohub,2013-07-20 05:29:00,
2013-07-20 01:34:00,75.9,73.0,29.94,West,264,0.0,3.0,91,0.00,,,0.00,0.0,meteohub,2013-07-20 05:34:00,
2013-07-20 01:39:00,75.7,72.9,29.94,WSW,254,0.0,3.0,91,0.00,,,0.00,0.0,meteohub,2013-07-20 05:39:00,
2013-07-20 01:44:00,75.7,73.2,29.94,WSW,254,1.0,4.0,92,0.00,,,0.00,0.0,meteohub,2013-07-20 05:44:00,
2013-07-20 01:49:00,75.6,73.0,29.94,West,281,0.0,4.0,92,0.00,,,0.00,0.0,meteohub,2013-07-20 05:49:00,
2013-07-20 01:55:00,75.4,72.9,29.94,WSW,238,0.0,4.0,92,0.00,,,0.00,0.0,meteohub,2013-07-20 05:55:00,
2013-07-20 02:00:00,75.4,72.9,29.94,WSW,238,1.0,3.0,92,0.00,,,0.00,0.0,meteohub,2013-07-20 06:00:00,
2013-07-20 02:05:00,75.2,72.7,29.94,SW,215,1.0,3.0,92,0.00,,,0.00,0.0,meteohub,2013-07-20 06:05:00,
2013-07-20 02:10:00,75.2,73.0,29.94,WSW,249,1.0,4.0,93,0.00,,,0.00,0.0,meteohub,2013-07-20 06:10:00,
2013-07-20 02:15:00,75.0,72.9,29.94,WSW,249,0.0,4.0,93,0.00,,,0.00,0.0,meteohub,2013-07-20 06:15:00,
2013-07-20 02:20:00,75.0,72.9,29.93,WSW,250,0.0,3.0,93,0.00,,,0.00,0.0,meteohub,2013-07-20 06:20:00,
2013-07-20 02:25:00,75.0,72.9,29.93,WSW,250,0.0,2.0,93,0.00,,,0.00,0.0,meteohub,2013-07-20 06:25:00,
2013-07-20 02:30:00,75.0,72.9,29.93,WSW,250,1.0,3.0,93,0.00,,,0.00,0.0,meteohub,2013-07-20 06:30:00,
2013-07-20 02:36:00,74.8,72.7,29.93,WSW,250,0.0,3.0,93,0.00,,,0.00,0.0,meteohub,2013-07-20 06:36:00,
2013-07-20 02:41:00,74.8,72.7,29.93,SW,215,0.0,3.0,93,0.00,,,0.00,0.0,meteohub,2013-07-20 06:41:00,
2013-07-20 02:46:00,74.8,72.7,29.92,SW,215,0.0,3.0,93,0.00,,,0.00,0.0,meteohub,2013-07-20 06:46:00,
2013-07-20 02:51:00,74.7,72.5,29.92,SW,232,0.0,3.0,93,0.00,,,0.00,0.0,meteohub,2013-07-20 06:51:00,
2013-07-20 02:56:00,74.7,72.5,29.93,SW,232,0.0,2.0,93,0.00,,,0.00,0.0,meteohub,2013-07-20 06:56:00,
2013-07-20 03:01:00,74.5,72.3,29.92,SW,215,0.0,2.0,93,0.00,,,0.00,0.0,meteohub,2013-07-20 07:01:00,
2013-07-20 03:06:00,74.1,72.0,29.92,SW,215,0.0,2.0,93,0.00,,,0.00,0.0,meteohub,2013-07-20 07:06:00,
2013-07-20 03:11:00,74.1,72.3,29.92,South,183,0.0,3.0,94,0.00,,,0.00,0.0,meteohub,2013-07-20 07:11:00,
2013-07-20 03:16:00,74.1,72.3,29.92,SSW,194,0.0,3.0,94,0.00,,,0.00,0.0,meteohub,2013-07-20 07:16:00,
2013-07-20 03:21:00,74.1,72.3,29.92,WSW,245,1.0,3.0,94,0.00,,,0.00,0.0,meteohub,2013-07-20 07:21:00,
2013-07-20 03:26:00,74.1,72.3,29.92,WSW,246,2.0,3.0,94,0.00,,,0.00,0.0,meteohub,2013-07-20 07:26:00,
2013-07-20 03:31:00,74.1,72.3,29.91,WNW,284,1.0,3.0,94,0.00,,,0.00,0.0,meteohub,2013-07-20 07:31:00,
2013-07-20 03:36:00,74.1,72.3,29.91,WNW,299,1.0,3.0,94,0.00,,,0.00,0.0,meteohub,2013-07-20 07:36:00,
2013-07-20 03:42:00,73.9,72.1,29.91,WSW,244,0.0,3.0,94,0.00,,,0.00,0.0,meteohub,2013-07-20 07:42:00,
2013-07-20 03:47:00,73.8,72.0,29.90,WSW,244,0.0,2.0,94,0.00,,,0.00,0.0,meteohub,2013-07-20 07:47:00,
2013-07-20 03:52:00,73.6,71.8,29.90,WSW,244,0.0,2.0,94,0.00,,,0.00,0.0,meteohub,2013-07-20 07:52:00,
2013-07-20 03:57:00,73.6,71.8,29.90,WSW,243,1.0,3.0,94,0.00,,,0.00,0.0,meteohub,2013-07-20 07:57:00,
2013-07-20 04:02:00,73.4,72.0,29.90,South,172,1.0,3.0,95,0.00,,,0.00,0.0,meteohub,2013-07-20 08:02:00,
2013-07-20 04:07:00,73.2,71.8,29.90,SSW,201,2.0,3.0,95,0.00,,,0.00,0.0,meteohub,2013-07-20 08:07:00,
2013-07-20 04:12:00,73.2,72.0,29.89,SSW,210,0.0,2.0,96,0.00,,,0.00,0.0,meteohub,2013-07-20 08:12:00,
2013-07-20 04:17:00,73.2,71.8,29.89,South,181,1.0,2.0,95,0.00,,,0.00,0.0,meteohub,2013-07-20 08:17:00,
2013-07-20 04:22:00,73.2,72.0,29.89,WSW,238,0.0,2.0,96,0.00,,,0.00,0.0,meteohub,2013-07-20 08:22:00,
2013-07-20 04:27:00,73.2,72.0,29.89,WSW,238,0.0,2.0,96,0.00,,,0.00,0.0,meteohub,2013-07-20 08:27:00,
2013-07-20 04:32:00,73.2,72.0,29.89,WSW,238,0.0,2.0,96,0.00,,,0.00,0.0,meteohub,2013-07-20 08:32:00,
2013-07-20 04:37:00,73.2,71.8,29.89,WSW,238,0.0,2.0,95,0.00,,,0.00,0.0,meteohub,2013-07-20 08:37:00,
2013-07-20 04:42:00,73.2,71.8,29.90,WSW,238,0.0,1.0,95,0.00,,,0.00,0.0,meteohub,2013-07-20 08:42:00,
2013-07-20 04:47:00,73.0,71.8,29.89,WSW,238,1.0,2.0,96,0.00,,,0.00,0.0,meteohub,2013-07-20 08:47:00,
2013-07-20 04:52:00,73.0,71.6,29.89,SSW,196,2.0,2.0,95,0.00,,,0.00,0.0,meteohub,2013-07-20 08:52:00,
2013-07-20 04:57:00,73.0,71.8,29.89,SSW,196,1.0,2.0,96,0.00,,,0.00,0.0,meteohub,2013-07-20 08:57:00,
2013-07-20 05:02:00,73.0,71.8,29.89,SSW,196,0.0,2.0,96,0.00,,,0.00,0.0,meteohub,2013-07-20 09:02:00,
2013-07-20 05:07:00,72.9,71.4,29.89,SSW,196,1.0,2.0,95,0.00,,,0.00,0.0,meteohub,2013-07-20 09:07:00,
2013-07-20 05:12:00,72.7,71.2,29.89,South,186,0.0,2.0,95,0.00,,,0.00,0.0,meteohub,2013-07-20 09:12:00,
2013-07-20 05:17:00,72.7,71.4,29.89,South,186,1.0,2.0,96,0.00,,,0.00,0.0,meteohub,2013-07-20 09:17:00,
2013-07-20 05:23:00,72.7,71.4,29.89,SSW,205,1.0,2.0,96,0.00,,,0.00,0.0,meteohub,2013-07-20 09:23:00,
2013-07-20 05:28:00,72.5,71.2,29.89,SSW,205,0.0,3.0,96,0.00,,,0.00,0.0,meteohub,2013-07-20 09:28:00,
2013-07-20 05:33:00,72.5,71.2,29.89,SW,227,0.0,3.0,96,0.00,,,0.00,0.0,meteohub,2013-07-20 09:33:00,
2013-07-20 05:38:00,72.5,71.2,29.89,SW,227,0.0,3.0,96,0.00,,,0.00,0.0,meteohub,2013-07-20 09:38:00,
2013-07-20 05:43:00,72.5,71.2,29.89,SW,236,0.0,3.0,96,0.00,,,0.00,0.0,meteohub,2013-07-20 09:43:00,
2013-07-20 05:48:00,72.3,71.1,29.89,SW,236,0.0,2.0,96,0.00,,,0.00,0.0,meteohub,2013-07-20 09:48:00,
2013-07-20 05:53:00,72.3,71.1,29.89,SW,236,1.0,2.0,96,0.00,,,0.00,0.0,meteohub,2013-07-20 09:53:00,
2013-07-20 05:58:00,72.3,71.4,29.89,SSW,205,0.0,3.0,97,0.00,,,0.00,0.0,meteohub,2013-07-20 09:58:00,
2013-07-20 06:03:00,72.3,71.1,29.89,SSW,205,0.0,3.0,96,0.00,,,0.00,0.0,meteohub,2013-07-20 10:03:00,
2013-07-20 06:09:00,72.3,71.1,29.89,South,186,1.0,3.0,96,0.00,,,0.00,0.0,meteohub,2013-07-20 10:09:00,
2013-07-20 06:14:00,72.1,70.9,29.90,SW,219,0.0,3.0,96,0.00,,,0.00,0.0,meteohub,2013-07-20 10:14:00,
2013-07-20 06:19:00,72.1,70.9,29.90,SW,219,0.0,3.0,96,0.00,,,0.00,0.0,meteohub,2013-07-20 10:19:00,
2013-07-20 06:24:00,72.1,70.9,29.91,SW,215,0.0,3.0,96,0.00,,,0.00,0.0,meteohub,2013-07-20 10:24:00,
2013-07-20 06:29:00,72.1,71.2,29.91,WSW,250,1.0,3.0,97,0.00,,,0.00,0.0,meteohub,2013-07-20 10:29:00,
2013-07-20 06:34:00,72.1,71.2,29.91,WSW,250,1.0,2.0,97,0.00,,,0.00,5.0,meteohub,2013-07-20 10:34:00,
2013-07-20 06:39:00,72.1,71.2,29.91,West,264,0.0,3.0,97,0.00,,,0.00,9.0,meteohub,2013-07-20 10:39:00,
2013-07-20 06:44:00,72.1,71.2,29.91,West,264,0.0,4.0,97,0.00,,,0.00,11.0,meteohub,2013-07-20 10:44:00,
2013-07-20 06:49:00,72.0,70.7,29.91,SSW,205,0.0,4.0,96,0.00,,,0.00,14.0,meteohub,2013-07-20 10:49:00,
2013-07-20 06:54:00,72.0,71.1,29.91,SW,232,0.0,4.0,97,0.00,,,0.00,18.0,meteohub,2013-07-20 10:54:00,
2013-07-20 07:00:00,72.0,71.1,29.92,SW,232,0.0,3.0,97,0.00,,,0.00,21.0,meteohub,2013-07-20 11:00:00,
2013-07-20 07:05:00,71.8,70.5,29.92,SW,232,0.0,3.0,96,0.00,,,0.00,25.0,meteohub,2013-07-20 11:05:00,
2013-07-20 07:10:00,71.8,70.5,29.92,SW,232,0.0,2.0,96,0.00,,,0.00,28.0,meteohub,2013-07-20 11:10:00,
2013-07-20 07:15:00,71.8,70.9,29.92,SW,232,0.0,1.0,97,0.00,,,0.00,32.0,meteohub,2013-07-20 11:15:00,
2013-07-20 07:20:00,71.8,70.9,29.93,SW,232,0.0,1.0,97,0.00,,,0.00,37.0,meteohub,2013-07-20 11:20:00,
2013-07-20 07:25:00,71.8,70.9,29.93,SW,232,1.0,1.0,97,0.00,,,0.00,37.0,meteohub,2013-07-20 11:25:00,
2013-07-20 07:30:00,72.1,71.6,29.93,SW,232,0.0,1.0,98,0.00,,,0.00,42.0,meteohub,2013-07-20 11:30:00,
2013-07-20 07:35:00,72.3,71.8,29.94,SW,232,1.0,1.0,98,0.00,,,0.00,47.0,meteohub,2013-07-20 11:35:00,
2013-07-20 07:40:00,72.7,72.1,29.94,WSW,256,0.0,3.0,98,0.00,,,0.00,46.0,meteohub,2013-07-20 11:40:00,
2013-07-20 07:46:00,73.0,72.1,29.94,SSE,153,1.0,3.0,97,0.00,,,0.00,54.0,meteohub,2013-07-20 11:46:00,
2013-07-20 07:51:00,73.4,72.5,29.94,SSW,199,2.0,3.0,97,0.00,,,0.00,51.0,meteohub,2013-07-20 11:51:00,
2013-07-20 07:56:00,73.9,72.7,29.94,South,181,1.0,3.0,96,0.00,,,0.00,53.0,meteohub,2013-07-20 11:56:00,
2013-07-20 08:01:00,74.3,72.9,29.94,South,190,3.0,3.0,95,0.00,,,0.00,98.0,meteohub,2013-07-20 12:01:00,
2013-07-20 08:06:00,74.7,72.9,29.94,SE,145,4.0,7.0,94,0.00,,,0.00,72.0,meteohub,2013-07-20 12:06:00,
2013-07-20 08:11:00,75.2,73.4,29.94,SSW,205,4.0,10.0,94,0.00,,,0.00,116.0,meteohub,2013-07-20 12:11:00,
2013-07-20 08:16:00,75.7,73.6,29.94,SW,215,2.0,10.0,93,0.00,,,0.00,206.0,meteohub,2013-07-20 12:16:00,
2013-07-20 08:21:00,76.3,73.8,29.94,SSW,210,1.0,10.0,92,0.00,,,0.00,236.0,meteohub,2013-07-20 12:21:00,
2013-07-20 08:26:00,76.8,73.9,29.94,WSW,242,3.0,6.0,91,0.00,,,0.00,250.0,meteohub,2013-07-20 12:26:00,
2013-07-20 08:31:00,77.5,74.3,29.94,West,277,2.0,6.0,90,0.00,,,0.00,267.0,meteohub,2013-07-20 12:31:00,
2013-07-20 08:36:00,78.1,74.3,29.94,WSW,257,3.0,8.0,88,0.00,,,0.00,285.0,meteohub,2013-07-20 12:36:00,
2013-07-20 08:42:00,78.6,74.5,29.94,WNW,285,3.0,8.0,87,0.00,,,0.00,299.0,meteohub,2013-07-20 12:42:00,
2013-07-20 08:47:00,79.2,74.7,29.94,WSW,242,2.0,8.0,86,0.00,,,0.00,302.0,meteohub,2013-07-20 12:47:00,
2013-07-20 08:52:00,79.3,74.5,29.94,West,273,1.0,8.0,85,0.00,,,0.00,341.0,meteohub,2013-07-20 12:52:00,
2013-07-20 08:57:00,79.3,74.8,29.94,SSE,147,4.0,9.0,86,0.00,,,0.00,234.0,meteohub,2013-07-20 12:57:00,
2013-07-20 09:02:00,79.7,75.2,29.94,WSW,254,3.0,9.0,86,0.00,,,0.00,339.0,meteohub,2013-07-20 13:02:00,
2013-07-20 09:07:00,80.1,74.8,29.94,NW,308,3.0,9.0,84,0.00,,,0.00,371.0,meteohub,2013-07-20 13:07:00,
2013-07-20 09:12:00,80.6,75.4,29.93,NW,312,2.0,8.0,84,0.00,,,0.00,390.0,meteohub,2013-07-20 13:12:00,
2013-07-20 09:17:00,81.0,75.7,29.93,South,177,4.0,8.0,84,0.00,,,0.00,399.0,meteohub,2013-07-20 13:17:00,
2013-07-20 09:22:00,81.3,75.7,29.93,SW,219,2.0,9.0,83,0.00,,,0.00,417.0,meteohub,2013-07-20 13:22:00,
2013-07-20 09:27:00,81.3,75.4,29.93,WNW,284,8.0,10.0,82,0.00,,,0.00,439.0,meteohub,2013-07-20 13:27:00,
2013-07-20 09:32:00,81.3,75.7,29.93,WSW,248,6.0,11.0,83,0.00,,,0.00,445.0,meteohub,2013-07-20 13:32:00,
2013-07-20 09:37:00,81.7,75.9,29.93,West,269,5.0,11.0,83,0.00,,,0.00,480.0,meteohub,2013-07-20 13:37:00,
2013-07-20 09:42:00,82.0,75.6,29.93,WSW,246,3.0,11.0,81,0.00,,,0.00,487.0,meteohub,2013-07-20 13:42:00,
2013-07-20 09:47:00,82.2,75.4,29.93,SW,225,3.0,11.0,80,0.00,,,0.00,501.0,meteohub,2013-07-20 13:47:00,
2013-07-20 09:53:00,82.4,75.9,29.93,WSW,252,3.0,11.0,81,0.00,,,0.00,522.0,meteohub,2013-07-20 13:53:00,
2013-07-20 09:58:00,82.6,75.4,29.92,SSW,205,2.0,11.0,79,0.00,,,0.00,527.0,meteohub,2013-07-20 13:58:00,
2013-07-20 10:03:00,82.8,75.9,29.92,SW,232,3.0,11.0,80,0.00,,,0.00,527.0,meteohub,2013-07-20 14:03:00,
2013-07-20 10:08:00,82.9,76.1,29.92,SSW,192,4.0,11.0,80,0.00,,,0.00,547.0,meteohub,2013-07-20 14:08:00,
2013-07-20 10:13:00,83.1,75.6,29.92,WSW,254,3.0,11.0,78,0.00,,,0.00,589.0,meteohub,2013-07-20 14:13:00,
2013-07-20 10:18:00,83.1,75.9,29.92,WSW,258,4.0,11.0,79,0.00,,,0.00,605.0,meteohub,2013-07-20 14:18:00,
2013-07-20 10:23:00,83.1,75.9,29.92,SW,215,8.0,11.0,79,0.00,,,0.00,624.0,meteohub,2013-07-20 14:23:00,
2013-07-20 10:28:00,83.5,75.6,29.91,SW,221,6.0,11.0,77,0.00,,,0.00,631.0,meteohub,2013-07-20 14:28:00,
2013-07-20 10:33:00,83.7,76.1,29.92,WSW,238,5.0,9.0,78,0.00,,,0.00,714.0,meteohub,2013-07-20 14:33:00,
2013-07-20 10:38:00,83.7,75.7,29.92,West,275,7.0,10.0,77,0.00,,,0.00,689.0,meteohub,2013-07-20 14:38:00,
2013-07-20 10:43:00,83.5,75.6,29.92,WNW,300,2.0,11.0,77,0.00,,,0.00,311.0,meteohub,2013-07-20 14:43:00,
2013-07-20 10:49:00,83.3,76.5,29.92,WNW,286,1.0,15.0,80,0.00,,,0.00,846.0,meteohub,2013-07-20 14:49:00,
2013-07-20 10:54:00,84.4,76.8,29.91,SW,232,7.0,15.0,78,0.00,,,0.00,809.0,meteohub,2013-07-20 14:54:00,
2013-07-20 10:59:00,84.9,76.5,29.91,West,270,4.0,15.0,76,0.00,,,0.00,788.0,meteohub,2013-07-20 14:59:00,
2013-07-20 11:04:00,85.3,77.2,29.91,SW,222,5.0,13.0,77,0.00,,,0.00,747.0,meteohub,2013-07-20 15:04:00,
2013-07-20 11:09:00,85.5,77.0,29.91,SSW,194,10.0,13.0,76,0.00,,,0.00,733.0,meteohub,2013-07-20 15:09:00,
2013-07-20 11:14:00,84.7,75.9,29.91,WSW,256,8.0,11.0,75,0.00,,,0.00,775.0,meteohub,2013-07-20 15:14:00,
2013-07-20 11:19:00,84.9,76.5,29.92,WNW,300,10.0,13.0,76,0.00,,,0.00,754.0,meteohub,2013-07-20 15:19:00,
2013-07-20 11:24:00,85.3,76.8,29.91,NNW,332,7.0,15.0,76,0.00,,,0.00,798.0,meteohub,2013-07-20 15:24:00,
2013-07-20 11:29:00,85.6,77.2,29.91,WSW,242,5.0,15.0,76,0.00,,,0.00,805.0,meteohub,2013-07-20 15:29:00,
2013-07-20 11:35:00,85.6,75.9,29.91,South,184,6.0,15.0,73,0.00,,,0.00,840.0,meteohub,2013-07-20 15:35:00,
2013-07-20 11:40:00,85.8,76.6,29.91,WNW,288,3.0,12.0,74,0.00,,,0.00,954.0,meteohub,2013-07-20 15:40:00,
2013-07-20 11:45:00,86.7,76.1,29.91,WSW,238,5.0,12.0,71,0.00,,,0.00,942.0,meteohub,2013-07-20 15:45:00,
2013-07-20 11:50:00,87.1,76.5,29.91,WNW,297,6.0,12.0,71,0.00,,,0.00,301.0,meteohub,2013-07-20 15:50:00,
2013-07-20 11:55:00,86.4,75.0,29.91,SW,224,9.0,12.0,69,0.00,,,0.00,257.0,meteohub,2013-07-20 15:55:00,
2013-07-20 12:00:00,86.4,75.0,29.91,WSW,252,2.0,17.0,69,0.00,,,0.00,974.0,meteohub,2013-07-20 16:00:00,
2013-07-20 12:05:00,86.5,75.9,29.91,West,267,4.0,17.0,71,0.00,,,0.00,979.0,meteohub,2013-07-20 16:05:00,
2013-07-20 12:10:00,86.9,75.6,29.91,SW,230,7.0,17.0,69,0.00,,,0.00,969.0,meteohub,2013-07-20 16:10:00,
2013-07-20 12:15:00,86.7,75.7,29.91,SW,230,5.0,16.0,70,0.00,,,0.00,946.0,meteohub,2013-07-20 16:15:00,
2013-07-20 12:20:00,86.4,74.5,29.91,West,259,3.0,16.0,68,0.00,,,0.00,403.0,meteohub,2013-07-20 16:20:00,
2013-07-20 12:26:00,86.9,75.9,29.91,West,260,6.0,14.0,70,0.00,,,0.00,923.0,meteohub,2013-07-20 16:26:00,
2013-07-20 12:31:00,87.1,74.3,29.91,WSW,239,9.0,12.0,66,0.00,,,0.00,967.0,meteohub,2013-07-20 16:31:00,
2013-07-20 12:36:00,87.3,75.0,29.90,WNW,284,4.0,15.0,67,0.00,,,0.00,914.0,meteohub,2013-07-20 16:36:00,
2013-07-20 12:41:00,86.7,73.9,29.90,West,278,1.0,15.0,66,0.00,,,0.00,179.0,meteohub,2013-07-20 16:41:00,
2013-07-20 12:46:00,86.9,74.1,29.90,WSW,239,3.0,15.0,66,0.00,,,0.00,932.0,meteohub,2013-07-20 16:46:00,
2013-07-20 12:51:00,87.1,75.7,29.90,SW,234,4.0,13.0,69,0.00,,,0.00,912.0,meteohub,2013-07-20 16:51:00,
2013-07-20 12:57:00,87.6,74.3,29.90,WSW,238,5.0,13.0,65,0.00,,,0.00,1004.0,meteohub,2013-07-20 16:57:00,
2013-07-20 13:02:00,87.1,74.8,29.90,NW,306,3.0,13.0,67,0.00,,,0.00,916.0,meteohub,2013-07-20 17:02:00,
2013-07-20 13:07:00,87.4,74.3,29.89,West,281,9.0,13.0,65,0.00,,,0.00,896.0,meteohub,2013-07-20 17:07:00,
2013-07-20 13:12:00,87.6,74.3,29.90,SW,231,4.0,12.0,65,0.00,,,0.00,960.0,meteohub,2013-07-20 17:12:00,
2013-07-20 13:17:00,88.2,73.9,29.89,SW,226,4.0,12.0,63,0.00,,,0.00,930.0,meteohub,2013-07-20 17:17:00,
2013-07-20 13:22:00,88.2,74.5,29.89,West,269,5.0,12.0,64,0.00,,,0.00,953.0,meteohub,2013-07-20 17:22:00,
2013-07-20 13:27:00,88.2,73.9,29.89,West,261,5.0,14.0,63,0.00,,,0.00,990.0,meteohub,2013-07-20 17:27:00,
2013-07-20 13:32:00,88.2,73.9,29.89,NW,323,4.0,14.0,63,0.00,,,0.00,1011.0,meteohub,2013-07-20 17:32:00,
2013-07-20 13:37:00,88.3,75.0,29.89,SW,229,4.0,13.0,65,0.00,,,0.00,1007.0,meteohub,2013-07-20 17:37:00,
2013-07-20 13:42:00,88.9,76.1,29.89,SW,227,3.0,13.0,66,0.00,,,0.00,977.0,meteohub,2013-07-20 17:42:00,
2013-07-20 13:47:00,88.7,73.6,29.88,WSW,256,3.0,13.0,61,0.00,,,0.00,949.0,meteohub,2013-07-20 17:47:00,
2013-07-20 13:53:00,88.9,73.2,29.88,WSW,250,11.0,14.0,60,0.00,,,0.00,970.0,meteohub,2013-07-20 17:53:00,
2013-07-20 13:58:00,89.2,75.9,29.88,SW,215,6.0,14.0,65,0.00,,,0.00,969.0,meteohub,2013-07-20 17:58:00,
2013-07-20 14:03:00,89.1,72.9,29.88,WSW,240,4.0,13.0,59,0.00,,,0.00,997.0,meteohub,2013-07-20 18:03:00,
2013-07-20 14:08:00,88.2,75.4,29.88,SW,230,1.0,14.0,66,0.00,,,0.00,983.0,meteohub,2013-07-20 18:08:00,
2013-07-20 14:13:00,88.9,75.6,29.87,South,188,6.0,14.0,65,0.00,,,0.00,1004.0,meteohub,2013-07-20 18:13:00,
2013-07-20 14:18:00,89.4,74.7,29.86,West,275,10.0,14.0,62,0.00,,,0.00,253.0,meteohub,2013-07-20 18:18:00,
2013-07-20 14:23:00,89.4,73.2,29.86,SW,236,6.0,14.0,59,0.00,,,0.00,162.0,meteohub,2013-07-20 18:23:00,
2013-07-20 14:29:00,88.5,74.3,29.86,SW,233,12.0,12.0,63,0.00,,,0.00,976.0,meteohub,2013-07-20 18:29:00,
2013-07-20 14:35:00,88.0,73.8,29.86,South,190,3.0,15.0,63,0.00,,,0.00,322.0,meteohub,2013-07-20 18:35:00,
2013-07-20 14:41:00,88.2,73.9,29.86,SSW,205,2.0,15.0,63,0.00,,,0.00,223.0,meteohub,2013-07-20 18:41:00,
2013-07-20 14:47:00,88.0,76.5,29.86,WSW,240,2.0,13.0,69,0.00,,,0.00,940.0,meteohub,2013-07-20 18:47:00,
2013-07-20 14:52:00,88.9,74.7,29.85,WSW,250,8.0,13.0,63,0.00,,,0.00,960.0,meteohub,2013-07-20 18:52:00,
2013-07-20 14:57:00,88.2,73.4,29.85,West,275,2.0,11.0,62,0.00,,,0.00,220.0,meteohub,2013-07-20 18:57:00,
2013-07-20 15:02:00,88.3,74.1,29.86,SSW,210,7.0,12.0,63,0.00,,,0.00,916.0,meteohub,2013-07-20 19:02:00,
2013-07-20 15:07:00,89.4,75.2,29.85,West,265,4.0,12.0,63,0.00,,,0.00,761.0,meteohub,2013-07-20 19:07:00,
2013-07-20 15:13:00,89.2,74.5,29.85,WNW,298,2.0,12.0,62,0.00,,,0.00,290.0,meteohub,2013-07-20 19:13:00,
2013-07-20 15:19:00,89.6,74.8,29.85,WSW,256,8.0,12.0,62,0.00,,,0.00,889.0,meteohub,2013-07-20 19:19:00,
2013-07-20 15:26:00,89.8,74.5,29.85,WNW,288,7.0,9.0,61,0.00,,,0.00,301.0,meteohub,2013-07-20 19:26:00,
2013-07-20 15:32:00,89.8,75.0,29.84,NW,307,3.0,13.0,62,0.00,,,0.00,896.0,meteohub,2013-07-20 19:32:00,
2013-07-20 15:37:00,90.1,73.4,29.84,WSW,242,6.0,13.0,58,0.00,,,0.00,879.0,meteohub,2013-07-20 19:37:00,
2013-07-20 15:42:00,89.8,72.5,29.84,WSW,240,5.0,13.0,57,0.00,,,0.00,844.0,meteohub,2013-07-20 19:42:00,
2013-07-20 15:47:00,89.8,73.6,29.84,WNW,287,5.0,13.0,59,0.00,,,0.00,819.0,meteohub,2013-07-20 19:47:00,
2013-07-20 15:52:00,89.8,73.6,29.83,SSW,210,5.0,13.0,59,0.00,,,0.00,833.0,meteohub,2013-07-20 19:52:00,
2013-07-20 15:57:00,89.6,74.3,29.83,SW,215,3.0,14.0,61,0.00,,,0.00,814.0,meteohub,2013-07-20 19:57:00,
2013-07-20 16:02:00,90.1,74.3,29.83,SW,228,6.0,14.0,60,0.00,,,0.00,793.0,meteohub,2013-07-20 20:02:00,
2013-07-20 16:07:00,89.6,73.9,29.83,SSW,210,6.0,13.0,60,0.00,,,0.00,816.0,meteohub,2013-07-20 20:07:00,
2013-07-20 16:12:00,89.2,73.6,29.83,NNW,331,2.0,11.0,60,0.00,,,0.00,795.0,meteohub,2013-07-20 20:12:00,
2013-07-20 16:17:00,89.8,74.5,29.83,South,188,5.0,12.0,61,0.00,,,0.00,202.0,meteohub,2013-07-20 20:17:00,
2013-07-20 16:22:00,89.4,72.7,29.83,West,273,8.0,12.0,58,0.00,,,0.00,775.0,meteohub,2013-07-20 20:22:00,
2013-07-20 16:27:00,89.2,73.0,29.83,South,186,5.0,12.0,59,0.00,,,0.00,765.0,meteohub,2013-07-20 20:27:00,
2013-07-20 16:34:00,89.4,73.8,29.83,South,187,7.0,15.0,60,0.00,,,0.00,749.0,meteohub,2013-07-20 20:34:00,
2013-07-20 16:40:00,89.8,73.6,29.83,West,277,4.0,15.0,59,0.00,,,0.00,696.0,meteohub,2013-07-20 20:40:00,
2013-07-20 16:45:00,89.4,72.7,29.83,West,263,4.0,14.0,58,0.00,,,0.00,721.0,meteohub,2013-07-20 20:45:00,
2013-07-20 16:51:00,89.2,73.6,29.83,West,276,4.0,14.0,60,0.00,,,0.00,742.0,meteohub,2013-07-20 20:51:00,
2013-07-20 16:56:00,89.2,73.0,29.83,NNW,344,7.0,14.0,59,0.00,,,0.00,671.0,meteohub,2013-07-20 20:56:00,
2013-07-20 17:01:00,89.1,72.3,29.83,WSW,240,12.0,14.0,58,0.00,,,0.00,656.0,meteohub,2013-07-20 21:01:00,
2013-07-20 17:06:00,89.6,73.4,29.83,WSW,254,5.0,14.0,59,0.00,,,0.00,693.0,meteohub,2013-07-20 21:06:00,
2013-07-20 17:12:00,89.1,73.4,29.83,West,267,10.0,12.0,60,0.00,,,0.00,142.0,meteohub,2013-07-20 21:12:00,
2013-07-20 17:22:00,89.2,73.6,29.83,SW,223,3.0,13.0,60,0.00,,,0.00,610.0,meteohub,2013-07-20 21:22:00,
2013-07-20 17:27:00,89.4,72.1,29.83,SSE,156,4.0,13.0,57,0.00,,,0.00,524.0,meteohub,2013-07-20 21:27:00,
2013-07-20 17:32:00,88.9,73.2,29.83,West,269,3.0,15.0,60,0.00,,,0.00,582.0,meteohub,2013-07-20 21:32:00,
2013-07-20 17:37:00,89.2,72.5,29.83,WSW,250,10.0,15.0,58,0.00,,,0.00,570.0,meteohub,2013-07-20 21:37:00,
2013-07-20 17:42:00,89.8,73.6,29.83,West,269,1.0,13.0,59,0.00,,,0.00,536.0,meteohub,2013-07-20 21:42:00,
2013-07-20 17:49:00,89.8,72.5,29.83,WNW,289,1.0,13.0,57,0.00,,,0.00,536.0,meteohub,2013-07-20 21:49:00,
2013-07-20 17:54:00,89.2,73.6,29.83,SW,229,4.0,14.0,60,0.00,,,0.00,504.0,meteohub,2013-07-20 21:54:00,
2013-07-20 18:00:00,89.6,73.9,29.83,WSW,249,9.0,14.0,60,0.00,,,0.00,522.0,meteohub,2013-07-20 22:00:00,
2013-07-20 18:05:00,89.4,72.1,29.83,West,274,2.0,12.0,57,0.00,,,0.00,473.0,meteohub,2013-07-20 22:05:00,
2013-07-20 18:11:00,89.2,72.5,29.83,SW,230,5.0,12.0,58,0.00,,,0.00,457.0,meteohub,2013-07-20 22:11:00,
2013-07-20 18:17:00,88.7,72.5,29.83,West,263,3.0,12.0,59,0.00,,,0.00,420.0,meteohub,2013-07-20 22:17:00,
2013-07-20 18:22:00,88.9,73.2,29.82,West,281,2.0,12.0,60,0.00,,,0.00,383.0,meteohub,2013-07-20 22:22:00,
2013-07-20 18:30:00,88.5,71.8,29.82,WNW,298,7.0,10.0,58,0.00,,,0.00,221.0,meteohub,2013-07-20 22:30:00,
2013-07-20 18:35:00,87.8,72.1,29.82,SW,235,6.0,9.0,60,0.00,,,0.00,123.0,meteohub,2013-07-20 22:35:00,
2013-07-20 18:40:00,87.8,72.1,29.82,SW,215,6.0,8.0,60,0.00,,,0.00,178.0,meteohub,2013-07-20 22:40:00,
2013-07-20 18:46:00,87.4,71.8,29.83,WNW,289,6.0,9.0,60,0.00,,,0.00,193.0,meteohub,2013-07-20 22:46:00,
2013-07-20 18:52:00,87.3,72.7,29.83,WSW,240,2.0,9.0,62,0.00,,,0.00,299.0,meteohub,2013-07-20 22:52:00,
2013-07-20 18:57:00,87.6,72.5,29.83,SW,225,7.0,9.0,61,0.00,,,0.00,250.0,meteohub,2013-07-20 22:57:00,
2013-07-20 19:02:00,87.4,72.3,29.83,SW,227,5.0,10.0,61,0.00,,,0.00,220.0,meteohub,2013-07-20 23:02:00,
2013-07-20 19:07:00,87.1,72.0,29.82,WSW,237,4.0,10.0,61,0.00,,,0.00,137.0,meteohub,2013-07-20 23:07:00,
2013-07-20 19:12:00,87.1,72.5,29.83,WNW,303,3.0,10.0,62,0.00,,,0.00,183.0,meteohub,2013-07-20 23:12:00,
2013-07-20 19:17:00,87.3,73.6,29.83,NW,304,5.0,8.0,64,0.00,,,0.00,151.0,meteohub,2013-07-20 23:17:00,
2013-07-20 19:22:00,87.1,73.4,29.83,West,275,2.0,8.0,64,0.00,,,0.00,107.0,meteohub,2013-07-20 23:22:00,
2013-07-20 19:29:00,86.9,73.2,29.83,WSW,256,3.0,7.0,64,0.00,,,0.00,69.0,meteohub,2013-07-20 23:29:00,
2013-07-20 19:35:00,86.4,73.6,29.83,West,262,2.0,7.0,66,0.00,,,0.00,60.0,meteohub,2013-07-20 23:35:00,
2013-07-20 19:40:00,85.8,73.2,29.83,West,268,1.0,5.0,66,0.00,,,0.00,53.0,meteohub,2013-07-20 23:40:00,
2013-07-20 19:46:00,85.1,73.4,29.83,SSW,196,1.0,5.0,68,0.00,,,0.00,54.0,meteohub,2013-07-20 23:46:00,
2013-07-20 19:52:00,84.7,73.0,29.83,WSW,244,2.0,5.0,68,0.00,,,0.00,51.0,meteohub,2013-07-20 23:52:00,
2013-07-20 19:57:00,84.6,73.8,29.83,SW,235,2.0,4.0,70,0.00,,,0.00,47.0,meteohub,2013-07-20 23:57:00,
2013-07-20 20:02:00,84.2,73.4,29.84,WSW,238,1.0,3.0,70,0.00,,,0.00,44.0,meteohub,2013-07-21 00:02:00,
2013-07-20 20:12:00,83.8,73.4,29.84,West,280,1.0,5.0,71,0.00,,,0.00,39.0,meteohub,2013-07-21 00:12:00,
2013-07-20 20:17:00,83.7,73.6,29.85,SW,236,0.0,4.0,72,0.00,,,0.00,33.0,meteohub,2013-07-21 00:17:00,
2013-07-20 20:22:00,83.5,73.0,29.85,West,278,1.0,4.0,71,0.00,,,0.00,28.0,meteohub,2013-07-21 00:22:00,
2013-07-20 20:27:00,83.3,72.9,29.85,West,278,1.0,4.0,71,0.00,,,0.00,25.0,meteohub,2013-07-21 00:27:00,
2013-07-20 20:32:00,83.1,73.6,29.85,West,278,0.0,4.0,73,0.00,,,0.00,19.0,meteohub,2013-07-21 00:32:00,
2013-07-20 20:37:00,82.9,73.8,29.86,West,278,0.0,2.0,74,0.00,,,0.00,16.0,meteohub,2013-07-21 00:37:00,
2013-07-20 20:42:00,82.6,73.4,29.86,NW,307,0.0,2.0,74,0.00,,,0.00,11.0,meteohub,2013-07-21 00:42:00,
2013-07-20 20:47:00,82.2,73.9,29.86,NW,307,0.0,2.0,76,0.00,,,0.00,7.0,meteohub,2013-07-21 00:47:00,
2013-07-20 20:52:00,81.7,73.8,29.86,NNW,333,2.0,2.0,77,0.00,,,0.00,0.0,meteohub,2013-07-21 00:52:00,
2013-07-20 20:57:00,81.3,73.4,29.86,NNW,327,1.0,3.0,77,0.00,,,0.00,0.0,meteohub,2013-07-21 00:57:00,
2013-07-20 21:02:00,81.0,73.4,29.87,NNW,335,2.0,4.0,78,0.00,,,0.00,0.0,meteohub,2013-07-21 01:02:00,
2013-07-20 21:07:00,80.8,73.6,29.87,NNW,333,4.0,4.0,79,0.00,,,0.00,0.0,meteohub,2013-07-21 01:07:00,
2013-07-20 21:12:00,80.2,73.6,29.88,NE,55,5.0,6.0,80,0.00,,,0.00,0.0,meteohub,2013-07-21 01:12:00,
2013-07-20 21:17:00,80.1,73.8,29.88,North,7,7.0,9.0,81,0.00,,,0.00,0.0,meteohub,2013-07-21 01:17:00,
2013-07-20 21:22:00,79.7,73.8,29.88,NE,37,2.0,11.0,82,0.00,,,0.00,0.0,meteohub,2013-07-21 01:22:00,
2013-07-20 21:27:00,79.3,73.4,29.88,North,9,7.0,11.0,82,0.00,,,0.00,0.0,meteohub,2013-07-21 01:27:00,
2013-07-20 21:36:00,79.0,73.0,29.88,NNW,344,2.0,11.0,82,0.00,,,0.00,0.0,meteohub,2013-07-21 01:36:00,
2013-07-20 21:42:00,78.4,72.5,29.88,NE,34,1.0,10.0,82,0.00,,,0.00,0.0,meteohub,2013-07-21 01:42:00,
2013-07-20 21:47:00,78.3,72.7,29.88,NE,38,2.0,7.0,83,0.00,,,0.00,0.0,meteohub,2013-07-21 01:47:00,
2013-07-20 21:56:00,78.1,72.5,29.89,North,5,1.0,7.0,83,0.00,,,0.00,0.0,meteohub,2013-07-21 01:56:00,
2013-07-20 22:02:00,77.7,72.1,29.89,ENE,73,2.0,4.0,83,0.00,,,0.00,0.0,meteohub,2013-07-21 02:02:00,
2013-07-20 22:07:00,77.5,72.3,29.88,ESE,110,1.0,3.0,84,0.00,,,0.00,0.0,meteohub,2013-07-21 02:07:00,
2013-07-20 22:17:00,77.2,72.0,29.89,ESE,109,0.0,3.0,84,0.00,,,0.00,0.0,meteohub,2013-07-21 02:17:00,
2013-07-20 22:22:00,77.0,71.8,29.89,ESE,109,0.0,2.0,84,0.00,,,0.00,0.0,meteohub,2013-07-21 02:22:00,
2013-07-20 22:27:00,76.8,71.6,29.90,NE,48,1.0,3.0,84,0.00,,,0.00,0.0,meteohub,2013-07-21 02:27:00,
2013-07-20 22:35:00,76.6,71.8,29.90,NE,48,0.0,3.0,85,0.00,,,0.00,0.0,meteohub,2013-07-21 02:35:00,
2013-07-20 22:40:00,76.5,72.3,29.89,SSE,154,3.0,3.0,87,0.00,,,0.00,0.0,meteohub,2013-07-21 02:40:00,
2013-07-20 22:45:00,76.1,72.0,29.89,SSE,147,0.0,3.0,87,0.00,,,0.00,0.0,meteohub,2013-07-21 02:45:00,
2013-07-20 22:52:00,76.1,72.0,29.89,SSE,147,1.0,3.0,87,0.00,,,0.00,0.0,meteohub,2013-07-21 02:52:00,
2013-07-20 22:58:00,75.7,71.6,29.89,ESE,110,1.0,5.0,87,0.00,,,0.00,0.0,meteohub,2013-07-21 02:58:00,
2013-07-20 23:04:00,75.6,71.8,29.89,SE,132,1.0,5.0,88,0.00,,,0.00,0.0,meteohub,2013-07-21 03:04:00,
2013-07-20 23:09:00,75.6,71.8,29.90,ESE,109,1.0,5.0,88,0.00,,,0.00,0.0,meteohub,2013-07-21 03:09:00,
2013-07-20 23:15:00,75.6,71.8,29.90,ESE,107,1.0,4.0,88,0.00,,,0.00,0.0,meteohub,2013-07-21 03:15:00,
2013-07-20 23:22:00,75.6,71.8,29.89,SSE,154,2.0,4.0,88,0.00,,,0.00,0.0,meteohub,2013-07-21 03:22:00,
2013-07-20 23:27:00,75.6,71.8,29.89,SSE,154,2.0,4.0,88,0.00,,,0.00,0.0,meteohub,2013-07-21 03:27:00,
2013-07-20 23:32:00,75.6,71.8,29.89,SE,140,3.0,5.0,88,0.00,,,0.00,0.0,meteohub,2013-07-21 03:32:00,
2013-07-20 23:38:00,75.6,72.1,29.89,SE,136,2.0,6.0,89,0.00,,,0.00,0.0,meteohub,2013-07-21 03:38:00,
2013-07-20 23:43:00,75.6,72.1,29.88,SE,135,3.0,6.0,89,0.00,,,0.00,0.0,meteohub,2013-07-21 03:43:00,
2013-07-20 23:48:00,75.4,72.0,29.88,ESE,105,1.0,6.0,89,0.00,,,0.00,0.0,meteohub,2013-07-21 03:48:00,
2013-07-20 23:56:00,75.4,72.0,29.88,SE,136,2.0,6.0,89,0.00,,,0.00,0.0,meteohub,2013-07-21 03:56:00,